Weather History for Harlan, IA

Change the Weather History Date:

Monday, April 22, 2013

  Actual Average Record
Temperature  
Mean Temperature 44 °F -  
Max Temperature 55 °F 64 °F 92 °F (1980)
Min Temperature 32 °F 39 °F 25 °F (1986)
Degree Days  
Heating Degree Days 22    
Moisture  
Dew Point 43 °F    
Average Humidity 97    
Maximum Humidity 100    
Minimum Humidity 77    
Precipitation  
Precipitation 0.64 in - - ()
Sea Level Pressure  
Sea Level Pressure 30.10 in    
Wind  
Wind Speed 5 mph (North)    
Max Wind Speed 22 mph    
Max Gust Speed 30 mph    
Visibility 7 miles    
Events Fog , Rain , Snow    
Averages and records for this station are not official NWS values.
T = Trace of Precipitation, MM = Missing Value Source: NWS Daily Summary

Daily Weather History Graph

Daily Weather History Graph

Search for Another Location

Airport:

Trip Planner

Search our weather history database for the weather conditions in past years. The results will help you decide how hot, cold, wet, or windy it might be!

Date:

Astronomy

Apr. 22, 2013 Rise Set
Actual Time 6:30 AM CDT 8:09 PM CDT
Civil Twilight 6:01 AM CDT 8:39 PM CDT
Nautical Twilight 5:25 AM CDT 9:15 PM CDT
Astronomical Twilight 4:47 AM CDT 9:53 PM CDT
Moon 4:57 PM CDT (4/22) 4:28 AM CDT (4/22)
Length of Visible Light 14h 38m
Length of Day
13h 39m
Waxing Gibbous, 88% of the Moon is Illuminated
Apr 22
Waxing Gibbous
Apr 25
Full
May 2
Last Quarter
May 9
New
May 17
First Quarter

Hourly Weather History & Observations

Time (CDT) Temp. Windchill Dew Point Humidity Pressure Visibility Wind Dir Wind Speed Gust Speed Precip Events Conditions
12:15 AM 48.2 °F - 46.4 °F 93% 30.16 in 10.0 mi Calm Calm - N/A   Scattered Clouds
12:35 AM 48.2 °F - 46.4 °F 93% 30.16 in 10.0 mi Calm Calm - N/A   Mostly Cloudy
12:55 AM 46.4 °F - 46.4 °F 100% 30.16 in 10.0 mi Calm Calm - N/A   Overcast
1:15 AM 46.4 °F - 46.4 °F 100% 30.16 in 10.0 mi Calm Calm - N/A   Overcast
1:35 AM 46.4 °F - 46.4 °F 100% 30.14 in 10.0 mi Calm Calm - N/A   Overcast
1:55 AM 46.4 °F - 46.4 °F 100% 30.15 in 7.0 mi Calm Calm - N/A   Scattered Clouds
2:15 AM 44.6 °F - 44.6 °F 100% 30.14 in 7.0 mi Calm Calm - N/A   Clear
2:35 AM 42.8 °F - 42.8 °F 100% 30.13 in 2.0 mi Calm Calm - N/A   Clear
2:55 AM 42.8 °F - 42.8 °F 100% 30.13 in 3.0 mi Calm Calm - N/A   Scattered Clouds
3:15 AM 42.8 °F 39.3 °F 42.8 °F 100% 30.13 in 0.5 mi North 5.8 mph - N/A Fog Fog
3:35 AM 44.6 °F 41.4 °F 44.6 °F 100% 30.13 in 5.0 mi North 5.8 mph - N/A   Mostly Cloudy
3:55 AM 44.6 °F - 44.6 °F 100% 30.12 in 4.0 mi Calm Calm - N/A   Drizzle
4:15 AM 44.6 °F 43.1 °F 44.6 °F 100% 30.13 in 2.5 mi North 3.5 mph - N/A Rain Rain
4:35 AM 44.6 °F - 44.6 °F 100% 30.13 in 1.5 mi Calm Calm - 0.03 in Rain Rain
4:55 AM 44.6 °F - 44.6 °F 100% 30.12 in 0.8 mi Calm Calm - 0.06 in Rain Light Rain
5:15 AM 44.6 °F - 44.6 °F 100% 30.11 in 1.8 mi Calm Calm - 0.01 in Rain Light Rain
5:35 AM 44.6 °F - 44.6 °F 100% 30.11 in 1.8 mi Calm Calm - 0.02 in Rain Rain
5:55 AM 44.6 °F 42.2 °F 44.6 °F 100% 30.11 in 1.8 mi North 4.6 mph - 0.04 in Rain Rain
6:15 AM 44.6 °F 40.2 °F 44.6 °F 100% 30.10 in 3.0 mi NNE 8.1 mph - 0.01 in   Overcast
6:35 AM 44.6 °F 43.1 °F 44.6 °F 100% 30.09 in 5.0 mi NNE 3.5 mph - 0.01 in   Overcast
6:55 AM 44.6 °F 42.2 °F 44.6 °F 100% 30.09 in 10.0 mi ENE 4.6 mph - 0.01 in Rain Light Rain
7:15 AM 46.4 °F - 46.4 °F 100% 30.10 in 7.0 mi Calm Calm - N/A Rain Light Rain
7:35 AM 44.6 °F 41.4 °F 44.6 °F 100% 30.10 in 4.0 mi NNE 5.8 mph - N/A   Overcast
7:55 AM 44.6 °F 40.7 °F 44.6 °F 100% 30.10 in 3.0 mi NNE 6.9 mph - N/A   Scattered Clouds
8:15 AM 44.6 °F - 44.6 °F 100% 30.10 in 2.5 mi Calm Calm - N/A   Scattered Clouds
8:35 AM 44.6 °F - 44.6 °F 100% 30.11 in 4.0 mi Calm Calm - 0.01 in Rain Light Rain
8:55 AM 44.6 °F 42.2 °F 44.6 °F 100% 30.11 in 2.5 mi North 4.6 mph - 0.01 in Rain Light Rain
9:15 AM 44.6 °F 42.2 °F 44.6 °F 100% 30.11 in 2.0 mi NNE 4.6 mph - N/A Rain Light Rain
9:35 AM 42.8 °F 40.1 °F 42.8 °F 100% 30.11 in 2.0 mi North 4.6 mph - 0.01 in Rain Light Rain
9:55 AM 42.8 °F 39.3 °F 42.8 °F 100% 30.10 in 2.0 mi North 5.8 mph - 0.02 in Rain Light Rain
10:15 AM 42.8 °F - 42.8 °F 100% 30.11 in 2.0 mi Calm Calm - N/A Rain Light Rain
10:35 AM 44.6 °F - 44.6 °F 100% 30.10 in 1.8 mi Calm Calm - 0.03 in Rain Rain
10:55 AM 44.6 °F - 44.6 °F 100% 30.10 in 2.0 mi Calm Calm - 0.09 in Rain Rain
11:15 AM 44.6 °F - 44.6 °F 100% 30.09 in 2.5 mi Calm Calm - 0.03 in Rain Light Rain
11:35 AM 48.2 °F - 48.2 °F 100% 30.06 in 2.5 mi East 4.6 mph - 0.03 in   Mostly Cloudy
11:55 AM 48.2 °F - 48.2 °F 100% 30.05 in 7.0 mi SE 5.8 mph - 0.03 in   Light Drizzle
12:15 PM 51.8 °F - 48.2 °F 88% 30.05 in 10.0 mi SE 6.9 mph - N/A   Scattered Clouds
12:35 PM 51.8 °F - 50.0 °F 94% 30.04 in 10.0 mi SSE 6.9 mph - N/A   Clear
12:55 PM 53.6 °F - 50.0 °F 88% 30.03 in 10.0 mi SSE 6.9 mph - N/A   Light Drizzle
1:15 PM 53.6 °F - 50.0 °F 88% 30.02 in 10.0 mi SE 6.9 mph - N/A Rain Light Rain
1:35 PM 53.6 °F - 48.2 °F 82% 30.01 in 10.0 mi SSE 6.9 mph - N/A   Light Drizzle
1:55 PM 55.4 °F - 48.2 °F 77% 30.00 in 10.0 mi SSE 10.4 mph - N/A   Light Drizzle
2:15 PM 55.4 °F - 50.0 °F 82% 29.99 in 10.0 mi SSE 6.9 mph - N/A Rain Light Rain
2:35 PM 55.4 °F - 50.0 °F 82% 30.00 in 10.0 mi SSW 6.9 mph - 0.02 in Rain Rain
2:55 PM 53.6 °F - 51.8 °F 94% 29.99 in 10.0 mi WSW 3.5 mph - 0.05 in Rain Light Rain
3:15 PM 53.6 °F - 51.8 °F 94% 29.98 in 10.0 mi WNW 3.5 mph - 0.03 in Rain Light Rain
3:35 PM 53.6 °F - 51.8 °F 94% 29.97 in 10.0 mi NNW 5.8 mph - 0.03 in Rain Light Rain
3:55 PM 53.6 °F - 51.8 °F 94% 29.97 in 10.0 mi North 3.5 mph - 0.04 in Rain Light Rain
4:15 PM 51.8 °F - 51.8 °F 100% 29.99 in 7.0 mi NW 9.2 mph - 0.02 in Rain Rain
4:35 PM 50.0 °F - 50.0 °F 100% 29.99 in 5.0 mi NNW 6.9 mph - 0.07 in Rain Rain
4:55 PM 48.2 °F - 48.2 °F 100% 30.00 in 7.0 mi NNW 5.8 mph - 0.11 in Rain Rain
5:15 PM 48.2 °F - 46.4 °F 93% 30.01 in 10.0 mi NW 13.8 mph - 0.04 in Rain Rain
5:35 PM 42.8 °F 34.8 °F 42.8 °F 100% 30.02 in 10.0 mi North 17.3 mph - 0.05 in Rain Light Rain
5:55 PM 39.2 °F 29.8 °F 39.2 °F 100% 30.04 in 7.0 mi NNW 18.4 mph 26.5 mph 0.07 in Rain Rain
6:15 PM 37.4 °F 26.9 °F 37.4 °F 100% 30.05 in 10.0 mi North 20.7 mph - 0.02 in Rain Rain
6:35 PM 37.4 °F 27.2 °F 37.4 °F 100% 30.07 in 7.0 mi North 19.6 mph 25.3 mph 0.05 in Rain Rain
6:55 PM 35.6 °F 25.5 °F 35.6 °F 100% 30.09 in 7.0 mi North 17.3 mph - 0.09 in Rain Light Rain
7:15 PM 35.6 °F 25.2 °F 35.6 °F 100% 30.10 in 7.0 mi North 18.4 mph 21.9 mph 0.02 in Rain Light Rain
7:35 PM 35.6 °F 26.6 °F 35.6 °F 100% 30.11 in 10.0 mi North 13.8 mph - 0.02 in Rain Light Rain
7:55 PM 35.6 °F 25.9 °F 35.6 °F 100% 30.12 in 10.0 mi North 16.1 mph 20.7 mph 0.02 in   Overcast
8:15 PM 35.6 °F 25.2 °F 35.6 °F 100% 30.14 in 10.0 mi North 18.4 mph 25.3 mph N/A   Overcast
8:35 PM 35.6 °F 24.2 °F 35.6 °F 100% 30.14 in 10.0 mi North 21.9 mph 27.6 mph N/A   Overcast
8:55 PM 33.8 °F 24.3 °F 33.8 °F 100% 30.16 in 10.0 mi North 13.8 mph 26.5 mph N/A   Overcast
9:15 PM 33.8 °F 22.5 °F 33.8 °F 100% 30.17 in 10.0 mi North 19.6 mph 27.6 mph N/A   Overcast
9:35 PM 33.8 °F 22.2 °F 33.8 °F 100% 30.18 in 10.0 mi North 20.7 mph 25.3 mph N/A   Overcast
9:55 PM 33.8 °F 22.8 °F 33.8 °F 100% 30.19 in 10.0 mi North 18.4 mph 26.5 mph N/A   Overcast
10:15 PM 33.8 °F 22.5 °F 32.0 °F 93% 30.21 in 10.0 mi North 19.6 mph 28.8 mph N/A   Overcast
10:35 PM 33.8 °F 22.8 °F 30.2 °F 87% 30.19 in 10.0 mi North 18.4 mph 24.2 mph N/A   Overcast
10:55 PM 33.8 °F 23.2 °F 30.2 °F 87% 30.18 in 10.0 mi North 17.3 mph 23.0 mph N/A   Overcast
11:15 PM 33.8 °F 23.2 °F 30.2 °F 87% 30.17 in 10.0 mi North 17.3 mph 29.9 mph N/A   Overcast
11:35 PM 32.0 °F 19.5 °F 30.2 °F 93% 30.19 in 7.0 mi North 21.9 mph 29.9 mph N/A Snow Light Snow
11:55 PM 33.8 °F 22.2 °F 30.2 °F 87% 30.21 in 10.0 mi North 20.7 mph 25.3 mph N/A   Overcast